EW7837 Weather Reports


time (UTC)temp
F
wind
direction
speed
knots
gust
knots
rain 1hr
in
rain 24hr
in
rain mn
in
humidity
%
barometer
mb
20260505073031 59 264 0.0 0.0 0.00 0.00 0.10 87 1011.7
20260505071512 60 264 0.0 0.0 0.00 0.00 0.03 86 1011.6
20260505070013 60 264 0.0 0.0 0.00 0.00 0.02 85 1011.7
20260505064506 61 264 0.0 0.0 0.00 0.00 0.01 83 1012.1
20260505063005 61 264 0.0 0.0 0.00 0.00 0.00 81 1012.1
20260505061514 61 264 0.0 0.0 0.00 0.00 0.00 79 1012.1
20260505060002 61 264 0.0 0.0 0.00 0.00 0.00 79 1012.1
20260505054502 61 264 0.0 0.0 0.00 0.00 0.00 79 1012.2
20260505053000 60 264 0.0 0.0 0.00 0.00 0.00 78 1012.4
20260505051600 60 264 0.0 0.0 0.00 0.00 0.00 78 1012.6
20260505041523 62 264 0.0 0.0 0.00 0.00 0.00 74 1012.5
20260505040019 62 264 0.0 0.0 0.00 0.00 0.00 75 1012.3
20260505034518 62 264 0.0 0.0 0.00 0.00 0.00 75 1012.2
20260505033014 62 264 0.0 0.0 0.00 0.00 0.00 74 1012.2
20260505031513 63 264 0.0 0.0 0.00 0.00 0.00 73 1012.0
20260505030012 63 264 0.0 0.0 0.00 0.00 0.00 73 1012.1
20260505024510 63 264 0.0 0.0 0.00 0.00 0.00 73 1011.7
20260505023012 64 264 0.0 0.0 0.00 0.00 0.00 72 1011.7
20260505021507 64 230 0.0 0.0 0.00 0.00 0.00 70 1011.8
20260505020006 65 247 0.0 0.0 0.00 0.00 0.00 70 1011.8
20260505014505 64 247 0.0 0.0 0.00 0.00 0.00 69 1011.8
20260505013003 66 246 0.0 0.0 0.00 0.00 0.00 69 1012.2
20260505011500 67 273 0.0 0.0 0.00 0.00 0.00 67 1012.2
20260505010118 68 265 0.9 0.0 0.00 0.00 0.00 65 1012.2
20260505004600 69 253 0.0 0.0 0.00 0.00 0.00 65 1012.2
20260505003059 68 251 0.0 0.0 0.00 0.00 0.00 65 1012.2
20260505001559 68 250 0.0 0.0 0.00 0.00 0.00 64 1012.2
20260505000059 68 263 0.0 0.0 0.00 0.00 0.00 65 1012.3
20260504234557 67 208 0.9 0.0 0.00 0.00 0.00 66 1012.3
20260504233058 68 210 0.0 0.0 0.00 0.00 0.00 64 1012.2
20260504231558 68 278 0.0 0.0 0.00 0.00 0.00 64 1012.3
20260504230053 69 269 0.9 0.0 0.00 0.00 0.00 61 1012.2
20260504224554 70 265 0.0 0.0 0.00 0.00 0.00 62 1012.3
20260504223100 69 262 0.9 0.0 0.00 0.00 0.00 63 1012.2
20260504221602 70 274 0.0 0.0 0.00 0.00 0.00 63 1012.4
20260504220050 70 268 0.0 0.0 0.00 0.00 0.00 62 1012.7
20260504214558 70 272 0.0 0.0 0.00 0.00 0.00 63 1012.8
20260504213059 70 194 0.9 0.0 0.00 0.00 0.00 63 1013.0
20260504211548 69 259 0.9 0.0 0.00 0.00 0.00 61 1012.8
20260504210045 70 268 0.9 0.0 0.00 0.00 0.00 61 1012.7
20260504204542 69 265 0.9 0.0 0.00 0.00 0.00 62 1012.9
20260504203047 69 264 0.9 0.0 0.00 0.00 0.00 63 1012.8
20260504201541 69 259 0.0 0.0 0.00 0.00 0.00 62 1012.9
20260504200037 69 270 0.9 0.0 0.00 0.00 0.00 64 1013.2
20260504194541 68 246 0.9 0.0 0.00 0.00 0.00 65 1013.2
20260504193034 69 255 0.0 0.0 0.00 0.00 0.00 67 1013.3
20260504191538 68 267 0.9 0.0 0.00 0.00 0.00 65 1013.2
20260504190031 67 255 0.0 0.0 0.00 0.00 0.00 64 1013.3
20260504184531 67 262 0.9 0.0 0.00 0.00 0.00 64 1013.5
20260504183029 68 270 0.9 0.0 0.00 0.00 0.00 63 1013.7
20260504181527 67 254 0.9 0.0 0.00 0.00 0.00 66 1013.5
20260504180024 67 259 0.0 0.0 0.00 0.00 0.00 66 1013.2
20260504174525 67 260 0.0 0.0 0.00 0.00 0.00 65 1013.5
20260504173034 67 215 0.0 0.0 0.00 0.00 0.00 65 1013.2
20260504173032 67 215 0.0 0.0 0.00 0.00 0.00 65 1013.2
20260504171525 67 257 0.0 0.0 0.00 0.00 0.00 66 1013.2
20260504150112 63 249 0.0 0.0 0.00 0.00 0.00 73 1012.6
20260504081518 63 250 0.0 0.0 0.00 0.00 0.00 76 1012.5